Flag for U.S.A. Weather past 2 weeks in New City, New York, U.S.A.

Now
80 °F

Passing clouds.


Feels Like: 82 °F
Forecast: 62 / 84 °F
Wind: 14 mph from South

Location: Westchester County Airport

Current Time: May 30, 2015 at 5:04:24 PM

Latest Report: May 30, 2015 at 3:56 PM


Visibility: 10 mi

Pressure: 30.09 "Hg

Humidity: 58%

Dew point: 64 °F

Location of New CityLocation

Historic Weather in New City — Graph

°F

New City temperature yesterday

Maximum temperature yesterday: 81 °F (at 3:56 PM)
Minimum temperature yesterday: 60 °F (at 3:56 AM)
Average temperature yesterday: 69 °F

Past Weeks' High & Low Weather Summary

 TemperatureHumidityPressure
High83 °F (May 26, 12:56 PM)100% (May 16, 8:02 AM)30.41 "Hg (May 16, 8:02 AM)
Low42 °F (May 23, 5:56 AM)22% (May 24, 1:56 PM)29.76 "Hg (May 19, 6:56 PM)
Average64 °F68%30.12 "Hg
* Reported May 15 3:56 PM — May 30 3:56 PM, New City, Weather by CustomWeather, © 2015

Note: Actual official high and low records may vary slightly from our data, if they occured in-between our weather recording intervals... More about our weather records

Advertising

New City weather history for previous 24 hours

 ConditionsComfort  
Time TempWeatherWind HumidityBarometerVisibility
3:56 PM
Sat, May 30
80 °FPassing clouds.14 mph58%30.09 "Hg10 mi
2:56 PM81 °FScattered clouds.12 mph60%30.11 "Hg10 mi
1:56 PM81 °FScattered clouds.12 mph60%30.13 "Hg10 mi
12:56 PM80 °FScattered clouds.14 mph62%30.15 "Hg10 mi
11:56 AM79 °FPassing clouds.12 mph65%30.16 "Hg10 mi
10:56 AM77 °FPassing clouds.9 mph66%30.17 "Hg10 mi
9:56 AM76 °FScattered clouds.8 mph69%30.19 "Hg10 mi
8:56 AM71 °FPassing clouds.6 mph78%30.21 "Hg10 mi
7:56 AM67 °FFog.5 mph87%30.20 "Hg6 mi
6:56 AM63 °FFog.5 mph97%30.20 "Hg2 mi
5:56 AM60 °FFog.No wind96%30.20 "Hg2 mi
4:56 AM60 °FFog.No wind93%30.19 "Hg4 mi
3:56 AM60 °FFog.No wind96%30.18 "Hg4 mi
2:56 AM61 °FFog.No wind93%30.19 "Hg5 mi
1:56 AM61 °FClear.5 mph90%30.19 "Hg7 mi
12:56 AM61 °FClear.3 mph90%30.20 "Hg9 mi
11:56 PM
Fri, May 29
62 °FClear.No wind86%30.22 "Hg10 mi
10:56 PM64 °FClear.No wind81%30.23 "Hg10 mi
9:56 PM65 °FClear.No wind78%30.23 "Hg10 mi
8:56 PM65 °FSunny.5 mph76%30.23 "Hg10 mi
7:56 PM70 °FSunny.7 mph66%30.22 "Hg10 mi
6:56 PM73 °FSunny.8 mph57%30.21 "Hg10 mi
5:56 PM76 °FSunny.6 mph50%30.21 "Hg10 mi
Weather by CustomWeather, © 2015

See weather overviewHow to use our weather pages